Hourly Data Report for September 21, 2017

All times are specified in Local Standard Time (LST). Add 1 hour to adjust for Daylight Saving Time where and when it is observed.

BUCTOUCHE CDA CS
NEW BRUNSWICK

46°25'49.006" N
64°46'05.009" W
35.90 m
8100593
71666
ABT

Download Data

Hourly Data (September 2017)
Hourly Data Report for September 21, 2017
Temp Definition
°C
Dew Point Temp Definition
°C
Rel Hum Definition
%
Wind Dir Definition
10's deg

Wind Spd Definition
km/h
Visibility Definition
km
Stn Press Definition
kPa
Hmdx Definition


Wind Chill Definition


Weather Definition


TIME
00:00 14.4 13.0 92 35 5   101.38     LegendNANA
01:00 12.7 11.7 94 35 3   101.40     LegendNANA
02:00 12.6 11.9 95 35 5   101.39     LegendNANA
03:00 13.2 12.5 96 34 7   101.42     LegendNANA
04:00 11.5 10.9 96 33 6   101.43     LegendNANA
05:00 11.4 10.8 96 35 6   101.45     LegendNANA
06:00 11.9 10.6 92 36 7   101.49     LegendNANA
07:00 12.3 10.6 89 3 9   101.53     LegendNANA
08:00 15.2 11.7 80 4 20   101.55     LegendNANA
09:00 16.0 10.7 71 4 22   101.66     LegendNANA
10:00 17.3 11.4 68 4 17   101.73     LegendNANA
11:00 17.7 9.9 60 5 18   101.73     LegendNANA
12:00 18.2 10.4 60 4 14   101.73     LegendNANA
13:00 18.2 10.9 62 4 16   101.74     LegendNANA
14:00 18.4 7.3 49 3 17   101.72     LegendNANA
15:00 17.9 5.0 43 2 19   101.73     LegendNANA
16:00 17.3 7.5 53 4 15   101.73     LegendNANA
17:00 16.0 8.7 62 4 12   101.77     LegendNANA
18:00 14.5 9.3 71 6 5   101.78     LegendNANA
19:00 12.3 7.5 73 8 7   101.78     LegendNANA
20:00 10.8 6.6 76 8 5   101.81     LegendNANA
21:00 9.5 7.6 88 8 4   101.83     LegendNANA
22:00 9.2 6.6 84 7 5   101.84     LegendNANA
23:00 7.5 5.9 90   0   101.84     LegendNANA

Notes on Data Quality.

Legend

  • E = Estimated
  • M = Missing
  • NA = Not Available
  • ‡ = Partner data that is not subject to review by the National Climate Archives
Date modified: